TimeEDT,TemperatureF,Dew PointF,Humidity,Sea Level PressureIn,VisibilityMPH,Wind Direction,Wind SpeedMPH,Gust SpeedMPH,PrecipitationIn,Events,Conditions,WindDirDegrees,DateUTC
12:53 AM,72.0,66.0,81,30.07,10.0,ENE,5.8,-,N/A,,Clear,70,2013-05-18 04:53:00
1:53 AM,72.0,66.9,84,30.06,10.0,East,4.6,-,N/A,,Clear,90,2013-05-18 05:53:00
2:53 AM,71.1,66.9,87,30.05,10.0,East,5.8,-,N/A,,Clear,100,2013-05-18 06:53:00
3:53 AM,70.0,66.9,90,30.05,10.0,East,4.6,-,N/A,,Clear,100,2013-05-18 07:53:00
4:53 AM,69.1,66.9,93,30.05,10.0,ESE,5.8,-,N/A,,Clear,110,2013-05-18 08:53:00
5:53 AM,70.0,68.0,93,30.06,9.0,ESE,5.8,-,N/A,,Clear,110,2013-05-18 09:53:00
6:53 AM,70.0,68.0,93,30.07,6.0,ESE,4.6,-,N/A,,Clear,110,2013-05-18 10:53:00
7:53 AM,72.0,70.0,93,30.08,8.0,SE,4.6,-,N/A,,Clear,130,2013-05-18 11:53:00
8:53 AM,75.9,70.0,82,30.10,10.0,SSE,5.8,-,N/A,,Clear,150,2013-05-18 12:53:00
9:53 AM,78.1,71.1,79,30.10,10.0,SW,4.6,-,N/A,,Mostly Cloudy,220,2013-05-18 13:53:00
10:53 AM,81.0,70.0,69,30.11,10.0,WSW,5.8,-,N/A,,Mostly Cloudy,250,2013-05-18 14:53:00
11:53 AM,82.0,72.0,71,30.11,10.0,West,6.9,-,N/A,,Clear,280,2013-05-18 15:53:00
12:53 PM,82.9,71.1,67,30.09,10.0,West,8.1,-,N/A,,Clear,260,2013-05-18 16:53:00
1:53 PM,84.9,69.1,59,30.07,10.0,West,11.5,-,N/A,,Clear,260,2013-05-18 17:53:00
3:53 PM,84.0,69.1,61,30.05,10.0,West,13.8,-,N/A,,Clear,280,2013-05-18 19:53:00
4:53 PM,84.9,66.9,55,30.03,10.0,West,13.8,20.7,N/A,,Clear,280,2013-05-18 20:53:00
5:53 PM,84.9,64.0,49,30.02,10.0,West,12.7,-,N/A,,Clear,280,2013-05-18 21:53:00
6:53 PM,82.9,64.0,53,30.02,10.0,WNW,11.5,-,N/A,,Clear,290,2013-05-18 22:53:00
7:53 PM,81.0,62.1,52,30.03,10.0,NW,10.4,-,N/A,,Clear,310,2013-05-18 23:53:00
8:33 PM,78.8,60.8,54,30.03,10.0,WNW,4.6,-,N/A,,Partly Cloudy,300,2013-05-19 00:33:00
8:53 PM,78.1,62.1,58,30.03,10.0,WNW,6.9,-,N/A,,Partly Cloudy,300,2013-05-19 00:53:00
9:53 PM,75.9,64.9,69,30.04,10.0,North,5.8,-,N/A,,Clear,350,2013-05-19 01:53:00
10:53 PM,75.0,68.0,79,30.05,10.0,North,3.5,-,N/A,,Clear,350,2013-05-19 02:53:00